Peoria, IL

5:43 AM CST on November 13, 2019 (GMT -0600)
Greater Peoria Regional

Weather History for KPIA - September, 2019

Change the Weather History Date:

Sunday, September 15, 2019

  Actual Average Record
Temperature  
Mean Temperature 74 °F 66 °F  
Max Temperature 84 °F 78 °F 100 °F (1939)
Min Temperature 64 °F 56 °F 37 °F (1916)
Degree Days  
Heating Degree Days 0 2  
Month to date heating degree days 0 18  
Since 1 July heating degree days 0 24  
Cooling Degree Days 9 4  
Month to date cooling degree days 111 81  
Year to date cooling degree days 1093 988  
Growing Degree Days 24 (Base 50)    
Moisture  
Dew Point 64 °F    
Average Humidity 80    
Maximum Humidity 94    
Minimum Humidity 58    
Precipitation  
Precipitation 0.33 in 0.11 in 1.68 in (1894)
Month to date precipitation 1.76 1.65  
Year to date precipitation 35.28 26.60  
Snow  
Snow 0.00 in 0.00 in 0.00 in ()
Month to date snowfall 0.0 0.0  
Since 1 July snowfall 0.0 0.0  
Since 1 September snowfall 0.0 0.0  
Snow Depth 0.00 in    
Sea Level Pressure  
Sea Level Pressure 30.06 in    
Wind  
Wind Speed 6 mph ()    
Max Wind Speed 20 mph    
Max Gust Speed 26 mph    
Visibility 8.6 miles    
Events Rain , Thunderstorm    
T = Trace of Precipitation, MM = Missing Value Source: Averaged Metar Reports

Daily Weather History Graph

Daily Weather History Graph

Search for Another Location

Airport or City:

Astronomy

Sep. 15, 2019 Rise Set
Actual Time 6:39 AM CDT 7:08 PM CDT
Civil Twilight 6:11 AM CDT 7:35 PM CDT
Nautical Twilight 5:39 AM CDT 8:07 PM CDT
Astronomical Twilight 5:06 AM CDT 8:40 PM CDT
Moon 8:15 PM CDT (9/15) 7:49 AM CDT (9/15)
Length of Visible Light 13h 23m
Length of Day
12h 28m
Full, 98% of the Moon is Illuminated
Sep 15
Full
Sep 21
Last Quarter
Sep 28
New
Oct 5
First Quarter
Oct 13
Full

Hourly Weather History & Observations

Time (CDT) Temp. Heat Index Dew Point Humidity Pressure Visibility Wind Dir Wind Speed Gust Speed Precip Events Conditions
12:54 AM 69.1 °F - 59.0 °F 70% 30.11 in 10.0 mi South 6.9 mph - N/A   Partly Cloudy
1:54 AM 68.0 °F - 59.0 °F 73% 30.09 in 10.0 mi South 8.1 mph - N/A   Scattered Clouds
2:54 AM 68.0 °F - 57.9 °F 70% 30.06 in 10.0 mi SSW 9.2 mph - N/A   Clear
3:54 AM 69.1 °F - 57.0 °F 65% 30.06 in 10.0 mi SSW 6.9 mph - N/A   Clear
4:34 AM 69.1 °F - 57.0 °F 65% 30.06 in 10.0 mi SSW 10.4 mph - N/A Thunderstorm Scattered Clouds
4:49 AM 68.0 °F - 57.2 °F 68% 30.07 in 10.0 mi SSW 5.8 mph - N/A   Scattered Clouds
4:54 AM 68.0 °F - 57.9 °F 70% 30.06 in 10.0 mi SSW 6.9 mph - N/A   Scattered Clouds
5:38 AM 66.9 °F - 60.1 °F 79% 30.07 in 10.0 mi South 5.8 mph - 0.01 in Rain , Thunderstorm Light Rain
6:28 AM 64.9 °F - 62.1 °F 90% 30.12 in 8.0 mi NE 5.8 mph - 0.06 in Rain Rain
6:41 AM 64.9 °F - 62.1 °F 90% 30.12 in 7.0 mi East 3.5 mph - 0.09 in Rain , Thunderstorm Light Thunderstorms and Rain
6:52 AM 64.4 °F - 62.6 °F 94% 30.14 in 1.8 mi Calm Calm - 0.12 in Rain , Thunderstorm Heavy Rain
6:54 AM 64.0 °F - 62.1 °F 93% 30.13 in 1.2 mi Calm Calm - 0.12 in Rain , Thunderstorm Heavy Rain
7:00 AM 64.0 °F - 62.1 °F 93% 30.13 in 1.5 mi SE 4.6 mph - 0.11 in Rain , Thunderstorm Heavy Thunderstorms and Rain
7:04 AM 64.0 °F - 62.1 °F 93% 30.12 in 3.0 mi SE 8.1 mph - 0.13 in Rain , Thunderstorm Light Thunderstorms and Rain
7:21 AM 64.0 °F - 62.1 °F 93% 30.12 in 8.0 mi East 3.5 mph - 0.15 in Rain , Thunderstorm Light Rain
7:36 AM 64.9 °F - 62.1 °F 90% 30.13 in 7.0 mi Calm Calm - 0.16 in Rain Light Rain
7:54 AM 64.9 °F - 62.1 °F 90% 30.10 in 10.0 mi ESE 3.5 mph - 0.18 in Rain Light Rain
8:54 AM 64.9 °F - 63.0 °F 93% 30.12 in 10.0 mi East 5.8 mph - 0.01 in   Scattered Clouds
9:54 AM 66.0 °F - 63.0 °F 90% 30.10 in 10.0 mi SE 6.9 mph - 0.01 in   Mostly Cloudy
10:54 AM 66.9 °F - 64.0 °F 90% 30.08 in 10.0 mi SSE 8.1 mph - N/A   Mostly Cloudy
11:54 AM 71.1 °F - 66.0 °F 84% 30.06 in 10.0 mi South 10.4 mph - N/A   Scattered Clouds
12:54 PM 75.9 °F - 66.0 °F 71% 30.03 in 10.0 mi SSW 15.0 mph 23.0 mph N/A   Partly Cloudy
1:54 PM 81.0 °F 83.3 °F 66.9 °F 62% 30.00 in 10.0 mi SSW 16.1 mph - N/A   Partly Cloudy
2:54 PM 82.9 °F 85.4 °F 66.9 °F 58% 29.98 in 10.0 mi SW 18.4 mph 26.5 mph N/A   Clear
3:54 PM 82.9 °F 85.8 °F 68.0 °F 60% 29.97 in 10.0 mi WSW 15.0 mph - N/A   Clear
4:54 PM 82.9 °F 86.5 °F 69.1 °F 63% 29.98 in 10.0 mi WSW 10.4 mph - N/A   Scattered Clouds
5:54 PM 82.0 °F 85.9 °F 70.0 °F 67% 29.99 in 10.0 mi WSW 6.9 mph - N/A   Mostly Cloudy
6:54 PM 80.1 °F 83.2 °F 70.0 °F 71% 29.99 in 10.0 mi WSW 4.6 mph - N/A   Clear
7:54 PM 75.9 °F - 71.1 °F 85% 30.00 in 10.0 mi Calm Calm - N/A   Partly Cloudy
8:54 PM 75.0 °F - 70.0 °F 84% 30.01 in 10.0 mi Calm Calm - N/A   Clear
9:54 PM 73.0 °F - 70.0 °F 90% 30.01 in 9.0 mi Calm Calm - N/A   Clear
10:54 PM 72.0 °F - 69.1 °F 91% 30.02 in 10.0 mi Calm Calm - N/A   Clear
11:54 PM 71.1 °F - 69.1 °F 93% 30.02 in 8.0 mi Calm Calm - N/A   Clear